Weather Roundup
Issued by NWS Chicago, IL

Home | Current Version | Previous Version | Graphics & Text | Print | Product List | Glossary On
Versions: 1 2 3 4 5 6 7 8 9 10 11 12 13 14 15 16 17 18 19 20 21 22 23 24 25 26 27 28 29 30 31 32 33 34 35 36 37 38 39 40 41 42 43 44 45 46 47 48 49 50
000
NZUS59 KLOT 061400
HRRLOT

CHICAGO AREA WEATHER ROUNDUP
NATIONAL WEATHER SERVICE CHICAGO/ROMEOVILLE IL
900 AM CDT MON JUL 06 2015

NOTE: "FAIR" INDICATES FEW OR NO CLOUDS BELOW 12,000 FEET WITH NO
SIGNIFICANT WEATHER AND/OR OBSTRUCTIONS TO VISIBILITY.

* THESE STATIONS ARE NOT UNDER NWS QUALITY CONTROL. THEY ALSO MAY NOT
  REPORT WEATHER SUCH AS PRECIPITATION OR FOG.

ILZ005-006-012>014-019>023-061500-
NORTHEAST ILLINOIS

CITY           SKY/WX    TMP DP  RH WIND       PRES   REMARKS
OHARE          MOSUNNY   76  67  73 S10       29.98S HAZE
MIDWAY         MOSUNNY   77  67  71 S10       29.98F
AURORA         PTSUNNY   76  67  73 S13       29.98S HAZE
WAUKEGAN       NOT AVBL
DUPAGE AIRPORT PTSUNNY   75  68  78 S10       29.97S HAZE
WHEELING       PTSUNNY   76  66  71 S12       29.98F
NORTHERLY IS     N/A     75  65  70 S7          N/A
$$

WIZ051-052-058>065-066-070>072-061500-
SOUTHEAST WISCONSIN

CITY           SKY/WX    TMP DP  RH WIND       PRES   REMARKS
MILWAUKEE      PTSUNNY   74  65  73 S9        29.94F
KENOSHA*       PTSUNNY   75  66  73 S9        29.97S HAZE
RACINE*        PTSUNNY   74  64  71 S9        29.97F HAZE
WAUKESHA       SUNNY     70  64  83 S7        29.95F
$$

INZ001>003-010>013-019-020-061500-
NORTHWEST INDIANA

CITY           SKY/WX    TMP DP  RH WIND       PRES   REMARKS
GARY*          SUNNY    N/A N/A N/A S7        30.01F
MICHIGAN CITY* NOT AVBL
RENSSELAER*    NOT AVBL
$$

LMZ740>746-061500-
SOUTHERN LAKE MICHIGAN

STATION/POSITION TIME  SKY/WX   TEMP WIND        PRES    VSBY
                                AIR  DIR/SP/G
                 (UTC)          (F)  (DEG/KT/KT) (MB)    (MI)
HARRISON CRIB    1300            70  150/ 13/ 14   N/A
BURNHAM HARBOR   1300            73  140/  7/ 11   N/A
CALUMET HARBOR   1300            72  160/  9/ 11   N/A
BURNS HARBOR     1300            72  180/  8/ 12 1017.3F
MICHIGAN CITY    1300            70  160/ 12/ 15   N/A
$$

ABBREVIATIONS USED IN REMARKS
   TC - TEMPERATURE IN CELSIUS
  WCI - WIND CHILL INDEX
   HX - HEAT INDEX
  VSB - VISIBILITY
$$


USA.gov is the U.S. government's official web portal to all federal, state and local government web resources and services.